Regional Weather Roundup
Issued by NWS

Home | Current Version | Previous Version | Graphics & Text | Print | Product List | Glossary Off
Versions: 1 2 3 4 5 6 7 8 9 10 11 12 13 14 15 16 17 18 19 20 21 22 23 24 25 26 27 28 29 30 31 32 33 34 35 36 37 38 39 40 41 42 43 44 45 46 47 48 49 50

000
ASUS43 KDMX 011707
RWRIA

WEATHER ROUNDUP FOR IOWA
NATIONAL WEATHER SERVICE DES MOINES IA
1200 PM CDT SAT AUG 01 2015

NOTE: "FAIR" INDICATES FEW OR NO CLOUDS BELOW 12,000 FEET WITH NO
SIGNIFICANT WEATHER AND/OR OBSTRUCTIONS TO VISIBILITY.

* - THESE STATIONS ARE NOT NWS STATIONS...THUS NOT UNDER NWS
QUALITY CONTROL.  THEY ALSO DO NOT REPORT WEATHER SUCH
AS PRECIPITATION OR FOG.

IAZ001>003-012>014-020>022-031>034-043>046-011800-
   NORTHWEST IOWA

CITY           SKY/WX    TMP DP  RH WIND       PRES   REMARKS
CARROLL *      SUNNY     79  70  73 W9        30.03F HX  81
CHEROKEE *     PTSUNNY   81  72  74 W6        30.02S HX  84
DENISON *      SUNNY     79  68  69 CALM      30.02S HX  81
LE MARS *      SUNNY     81  66  61 SW7       30.02F HX  83
ORANGE CITY *  SUNNY     77  68  73 W8        30.03S
SHELDON *      SUNNY     79  70  73 SW7       30.01F HX  81
SIOUX CITY     PTSUNNY   81  66  60 W7        30.01F HX  83
SPENCER        CLOUDY    81  67  62 SW12      30.02S HX  83
STORM LAKE *   SUNNY     79  68  69 SW8       30.04S HX  81
$$

IAZ055>058-069>071-079>083-090>094-011800-
   SOUTHWEST IOWA

CITY           SKY/WX    TMP DP  RH WIND       PRES   REMARKS
ATLANTIC *     SUNNY     75  70  83 S7        30.04F
AUDUBON *      SUNNY     79  70  73 W5        30.05F HX  81
CLARINDA *     SUNNY     77  72  83 CALM      30.06F
COUNCIL BLFS * SUNNY     77  66  69 SW8       30.05R
CRESTON *      SUNNY     77  70  78 W7        30.06F
HARLAN  *      SUNNY     77  75  94 CALM      30.06F
LAMONI         CLOUDY    79  71  76 SW5       30.04F HX  82
RED OAK *      SUNNY     75  72  88 W8        30.04F
SHENANDOAH *   SUNNY     79  68  69 CALM      30.03F HX  81
$$

IAZ047>049-059>061-072>074-084-011800-
   CENTRAL IOWA

CITY           SKY/WX    TMP DP  RH WIND       PRES   REMARKS
AMES           PTSUNNY   82  71  69 SW9       30.00F HX  86
ANKENY *       SUNNY     82  70  65 S6        30.01F HX  86
CHARITON *     SUNNY     81  72  74 SW8       30.03F HX  84
DES MOINES     CLOUDY    83  69  62 SW9       30.02F HX  86
GRINNELL*      PTSUNNY   81  68  65 SW8       30.03F HX  83
KNOXVILLE *    SUNNY     81  70  69 SW6       30.02S HX  84
MARSHALLTOWN   PTSUNNY   81  70  69 SW12      30.00F HX  84
PELLA *        CLOUDY    82  72  69 SW3       30.04S HX  87
PERRY *          N/A     81  72  74 SW7       30.03F HX  84
$$

IAZ004>006-015-016-023>025-035-036-011800-
   NORTH CENTRAL IOWA

CITY           SKY/WX    TMP DP  RH WIND       PRES   REMARKS
ALGONA *       SUNNY     82  68  61 W7        30.01F HX  85
CLARION *      SUNNY     82  72  69 W7        30.00F HX  87
ESTHERVILLE    PTSUNNY   81  70  69 SW10      30.00F HX  84
FORT DODGE *   PTSUNNY   82  70  65 W9        30.02S HX  86
MASON CITY     MOSUNNY   84  69  60 W12       30.02F HX  88
FOREST CITY *  SUNNY     81  68  65 NW7       30.01S HX  83
IOWA FALLS *     N/A     82  70  65 SW5       30.02F HX  86
$$

IAZ007>011-017>019-026>030-037>042-050>054-066-011800-
   NORTHEAST IOWA

CITY           SKY/WX    TMP DP  RH WIND       PRES   REMARKS
CEDAR RAPIDS   PTSUNNY   80  68  66 SW15      30.00F HX  83
CHARLES CITY * SUNNY     82  72  69 W9G16     30.01F HX  87
CLINTON *      SUNNY     82  63  51 SW13      30.03F HX  83
DECORAH *      SUNNY     79  68  69 VRB7G13   29.99F HX  81
DUBUQUE        SUNNY     81  61  50 SW15      30.01S HX  82
MONTICELLO *   SUNNY     82  64  54 W8G17     30.00F HX  84
OELWEIN *      SUNNY     82  70  65 NW13      30.01F HX  86
WATERLOO       MOSUNNY   83  70  64 W10       29.99S HX  87
$$

IAZ064-065-067-068-078-011800-
   EAST CENTRAL IOWA

CITY           SKY/WX    TMP DP  RH WIND       PRES   REMARKS
DAVENPORT      MOSUNNY   81  62  52 SW10      30.02S HX  82
IOWA CITY      PTSUNNY   83  63  50 SW14      30.01F HX  84
MT. PLEASANT * PTSUNNY   82  59  44 SW10      30.04S HX  82
MUSCATINE *    SUNNY     84  61  45 SW14      30.02S HX  84
QUAD CITIES    MOSUNNY   83  59  44 SW10      30.01S HX  83
$$

IAZ062-063-075>077-085>089-095>099-011800-
   SOUTHEAST IOWA

CITY           SKY/WX    TMP DP  RH WIND       PRES   REMARKS
BURLINGTON     PTSUNNY   81  65  58 SW9       30.03F HX  83
FAIRFIELD *    SUNNY     81  64  57 SW8       30.04S HX  82
FORT MADISON * SUNNY     81  66  61 S7        30.04F HX  83
KEOKUK *       SUNNY     82  61  47 S10       30.03F HX  83
OSKALOOSA *      N/A     81  66  61 SW6       30.04S HX  83
CENTERVILLE *  SUNNY     81  72  74 S6        30.05F HX  84
OTTUMWA        CLOUDY    81  68  64 S8        30.02S HX  84
WASHINGTON *   SUNNY     82  66  57 SW9       30.04F HX  85
$$

ABBREVIATIONS USED IN REMARKS
   TC - TEMPERATURES IN CELSIUS
  WCI - WIND CHILL INDEX
   HX - HEAT INDEX
  VSB - VISIBILITY
$$




USA.gov is the U.S. government's official web portal to all federal, state and local government web resources and services.